213P/Van Ness (2011)

Japanese version
Home page
Updated on February 15, 2009

---------------------------------------------------------------------

* Profile

Designation 213P/2009 B3
Recovery Date January 31, 2009
Magnitude 20.7 mag
Recoverer G. Hug (Scranton, KS, U.S.A.)

* Orbital Elements

Epoch 2011 June 8.0 TT = JDT 2455720.5
T 2011 June 16.23081 TT                                 MPC
q   2.1225332            (2000.0)            P               Q
n   0.15575169     Peri.    3.33206     +0.71870680     +0.68291849
a   3.4212190      Node   312.67187     -0.64197692     +0.57954586
e   0.3795974      Incl.   10.23962     -0.26706959     +0.44468970
P   6.33

* Finding Charts

* Magnitudes Graph

        m1 = 7.5 + 5 log d + 15 log r

---------------------------------------------------------------------

The orbital elements are published on M.P.E.C. 2009-C03.
The charts are made with StellaNavigator Ver.8 (AstroArts).
The magnitudes graphs are made with Comet for Windows.

---------------------------------------------------------------------

Copyright(C) Seiichi Yoshida (comet@aerith.net). All rights reserved.